CAPE
382 339 576 497 501 504 330 447 254 169 125 303 332 300 147 85 51 156 88 225 195 173
462 540 352 306 351 441 420 17 49 81 199 324 258 147 90 65 184 184 52 181 124 109
470 379 464 295 118 297 313 183 72 312 375 254 207 208 176 94 140 46 34 60 97 118
384 375 285 279 243 210 140 97 316 415 349 211 295 297 120 152 128 42 34 62 68 88
408 347 192 238 184 2 61 9 36 239 269 249 210 158 107 28 47 71 52 12 38 27
188 223 258 321 110 8 14 21 93 136 113 173 100 74 156 115 84 63 63 56 57 42
168 229 280 226 169 36 103 22 66 188 172 57 0 7 10 22 102 164 58 56 48 39
177 187 261 219 248 265 47 38 149 34 6 0 212 5 1 67 147 133 73 46 13 12
182 179 307 249 175 97 56 166 51 7 0 0 0 2 4 91 94 104 35 34 16 11
240 104 169 227 80 51 64 117 31 1 0 0 0 2 22 88 66 66 8 1 2 13
354 198 283 223 78 36 31 65 75 23 0 0 0 0 36 35 12 2 8 0 0 1
252 248 138 184 119 80 48 31 86 19 0 0 0 0 46 44 0 3 8 1 3 0
224 261 222 232 126 120 33 35 55 38 0 0 0 0 44 6 0 1 7 5 19 8
289 543 353 313 332 79 6 8 20 22 1 0 0 0 0 6 4 0 0 40 0 0
CIN
-69 -70 -30 -21 -30 -23 -38 -17 -43 -36 -41 -10 -4 -5 -19 -47 -41 -33 -35 -29 -43 -30
-65 -13 -18 -23 -21 -20 -13 -148 -87 -43 -18 -4 -4 -17 -24 -59 -29 -30 -52 -29 -39 -24
-36 -24 -14 -13 -45 -18 -15 -15 -48 -10 -5 -12 -27 -22 -18 -39 -42 -34 -84 -40 -36 -45
-47 -35 -23 -21 -21 -10 -17 -28 -13 -12 -16 -23 -24 -16 -31 -29 -39 -85 -74 -49 -52 -55
-39 -35 -38 -21 -24 -144 -43 -91 -73 -16 -15 -26 -32 -17 -46 -66 -62 -43 -44 -54 -10 -64
-60 -44 -23 -13 -48 -84 -31 -49 -39 -21 -53 -26 -33 -34 -10 -23 -29 -25 -44 -46 -33 -39
-53 -29 -14 -19 -30 -85 -42 -37 -34 -29 -31 -64 0 -89 -10 -29 -15 -31 -37 -36 -30 -33
-45 -27 -23 -19 -11 -13 -41 -46 -38 -43 -58 0 -1 -4 -4 -23 -17 -22 -27 -24 0 -11
-34 -36 -15 -24 -25 -42 -65 -52 -29 -5 0 0 0 0 -6 -12 -21 -18 -11 -6 -3 -1
-45 -35 -24 -16 -59 -92 -32 -26 -25 -14 0 0 0 -3 -21 -10 -22 -22 -11 -13 -21 -21
-29 -28 -17 -14 -63 -143 -35 -26 -25 -39 0 0 0 0 -7 -9 -36 -23 -24 -1 0 -17
-30 -19 -28 -15 -36 -96 -47 -30 -21 -20 0 0 0 0 -6 -7 -3 -8 -4 -1 0 0
-49 -27 -22 -41 -32 -32 -13 -16 -15 -27 0 0 0 0 -10 -2 0 0 0 0 0 0
-46 -24 -18 -42 -32 -39 -20 -17 -7 -11 -7 0 0 0 0 -8 -12 0 0 -1 0 0
Wind_Speed
29 27 26 24 24 27 22 18 14 10 12 13 12 13 13 nan nan 7 nan 3 4 4
25 26 26 25 26 21 19 nan nan nan 9 9 11 13 nan nan 13 4 nan 0 3 3
23 27 26 24 22 19 16 12 nan 10 7 6 8 14 16 nan 6 nan nan nan nan 5
24 25 23 21 16 17 15 nan 7 8 6 6 7 9 14 9 5 nan nan nan nan nan
23 23 20 17 15 nan nan nan nan 6 7 4 4 7 15 nan nan nan nan nan nan nan
19 18 16 16 12 nan nan nan nan 2 6 6 4 nan 7 7 nan nan nan nan nan nan
15 13 15 13 10 nan 6 nan nan 6 6 nan nan nan nan nan 8 9 nan nan nan nan
13 13 15 11 10 3 nan nan 11 nan nan nan 7 nan nan nan 5 4 nan nan nan nan
11 11 12 11 8 nan nan 13 nan nan nan nan nan nan nan nan nan 5 nan nan nan nan
9 9 12 11 nan nan nan 11 nan nan nan nan nan nan nan nan nan nan nan nan nan nan
11 10 9 8 nan nan nan nan nan nan nan nan nan nan nan nan nan nan nan nan nan nan
10 10 10 7 6 nan nan nan nan nan nan nan nan nan nan nan nan nan nan nan nan nan
10 12 13 10 7 6 nan nan nan nan nan nan nan nan nan nan nan nan nan nan nan nan
8 10 13 12 10 nan nan nan nan nan nan nan nan nan nan nan nan nan nan nan nan nan
Wind_Direction
300 299 304 304 306 317 322 323 328 338 356 357 12 17 7 nan nan 349 nan 17 52 152
302 307 310 305 309 315 312 nan nan nan 354 14 18 8 nan nan 18 302 nan 350 222 198
314 314 311 305 311 315 310 290 nan 320 343 356 14 9 7 nan 335 nan nan nan nan 159
311 317 311 308 314 310 301 nan 317 330 345 7 18 3 1 351 336 nan nan nan nan nan
312 311 313 318 313 nan nan nan nan 6 341 334 345 343 9 nan nan nan nan nan nan nan
313 315 322 316 313 nan nan nan nan 301 288 283 304 nan 24 49 nan nan nan nan nan nan
325 326 329 320 331 nan 339 nan nan 250 247 nan nan nan nan nan 45 17 nan nan nan nan
320 318 319 336 355 48 nan nan 267 nan nan nan 227 nan nan nan 21 47 nan nan nan nan
318 311 312 323 323 nan nan 298 nan nan nan nan nan nan nan nan nan 113 nan nan nan nan
340 321 311 311 nan nan nan 293 nan nan nan nan nan nan nan nan nan nan nan nan nan nan
351 344 338 318 nan nan nan nan nan nan nan nan nan nan nan nan nan nan nan nan nan nan
8 357 354 353 338 nan nan nan nan nan nan nan nan nan nan nan nan nan nan nan nan nan
11 360 13 12 346 340 nan nan nan nan nan nan nan nan nan nan nan nan nan nan nan nan
7 357 20 22 41 nan nan nan nan nan nan nan nan nan nan nan nan nan nan nan nan nan